sat.trackr.live / text

‹ back to catalog

STARLINK-37414

NORAD 69176 · 2026-111AE

PAYLOAD ACTIVE UNKNOWN

§ Identity

Operator
Country
US
Launch date
2026-05-21
Launch site
AFETR
Launch vehicle
Mass (kg)
RCS (m²)

Purposes: comms

External: N2YO · Heavens-Above · Gunter

§ Orbital elements

Epoch: 2026-09-20T04:23:30.674688Z

Period
93.85 min
Inclination
53.1596°
Eccentricity
0.0001181
Mean motion
15.34405018 rev/d
Perigee alt
461.9 km
Apogee alt
463.5 km
Semi-major
6,840.8 km
B*
3.0832e-4
RAAN
66.9423°
Arg perigee
243.1212°
Mean anomaly
116.9670°
Rev number
1,885

§ Raw data

STARLINK-374141 69176U 26111AE  26263.18299392  .00010057  00000+0  30832-3 0  99932 69176  53.1596  66.9423 0001181 243.1212 116.9670 15.34405018 18859

JSON: /api/v1/satellites/69176 · /tle

For live sub-satellite position, see the globe view (requires WebGL).

§ Visibility from observer

Set your observer location to see the next 7 days of passes ≥ 10°. The values pass through the URL so the page stays shareable.

No JS? Fill the form by hand. The geolocation button needs JavaScript.